Back to catalog

COSMOS 2572

AliveMilitarySSO
NORAD 58435·PAYLOAD·🇷🇺 Russia

Launched Nov 25, 2023 from Plesetsk Cosmodrome

Loading…

Next Passes (next 24 hours)

TLE

FreshSource: Space-Track

Epoch: Sep 14, 2026, 12:57 UTC

1 58435U 23182A   26257.54002722  .00174687  14061-4  37051-3 0  9993
2 58435  96.6802   0.3295 0002483 214.2129 145.8991 15.98773512162661

Track COSMOS 2572 in real time with AllMySat

Download on the App Store